contact:dominique.lefevre@mio.osupytheas.fr, maurice.libes@osupytheas.fr
Project:EMSO Ligure-ouest http://www.emso-fr.org/EMSO-France
Sensor Aquadopp, line 13 Serial AQD14315 
DOI : "https://doi.org/10.17882/74513; https://doi.org/10.17882/83244" 
Title:EMSO Ligure Ouest : Data ligne ALBATROSS capteur AQUADOPP - deploiement 2021
Id,Date,Profondeur,Latitude,Longitude,X_East,Y_North,Z_Up,Amplitude_X,Amplitude_Y,Amplitude_Z,Batterie,SoundSpeed,Heading,Pitch,Roll,Pressure,Temperature,Speed,Direction
, , m, degrees North, degrees East, m.s-1, m.s-1,m.s-1, 1, 1, 1, Volt, m.s-1, degree, degree, degree, dbar, degree_C, m.s-1, degree
11,2022-05-22T21:30:00,2200.0,42.79,6.0312,-0.039,-0.061,0.005,61.0,64.0,65.0,11.8,1504.3,212.6,-1.1,0.1,2192.739,13.17,0.072,212.6
11,2022-05-22T22:00:00,2200.0,42.79,6.0312,-0.023,-0.048,0.003,60.0,66.0,67.0,11.8,1504.3,211.3,-1.0,0.5,2192.757,13.17,0.053,205.6
11,2022-05-22T22:30:00,2200.0,42.79,6.0312,-0.035,-0.046,0.012,62.0,65.0,68.0,11.9,1504.3,212.1,-1.1,0.4,2192.826,13.17,0.057,217.3
11,2022-05-22T23:00:00,2200.0,42.79,6.0312,-0.031,-0.058,0.018,63.0,65.0,66.0,11.8,1504.3,208.7,-1.5,0.3,2192.878,13.17,0.065,208.1
11,2022-05-22T23:30:00,2200.0,42.79,6.0312,-0.027,-0.058,-0.004,62.0,65.0,65.0,11.8,1504.3,210.2,-1.4,0.2,2192.891,13.17,0.063,205.0
11,2022-05-23T00:00:00,2200.0,42.79,6.0312,-0.026,-0.049,0.002,63.0,67.0,67.0,11.9,1504.3,215.2,-1.2,0.6,2192.894,13.17,0.055,207.9
11,2022-05-23T00:30:00,2200.0,42.79,6.0312,-0.029,-0.066,0.0,62.0,63.0,66.0,11.9,1504.3,210.2,-0.9,0.5,2192.859,13.17,0.072,203.7
11,2022-05-23T01:00:00,2200.0,42.79,6.0312,-0.036,-0.049,0.005,63.0,66.0,67.0,11.9,1504.3,212.0,-1.1,0.4,2192.876,13.17,0.06,216.3
11,2022-05-23T01:30:00,2200.0,42.79,6.0312,-0.029,-0.058,0.003,62.0,66.0,68.0,11.9,1504.3,215.7,-1.5,0.2,2192.887,13.17,0.064,206.6
11,2022-05-23T02:00:00,2200.0,42.79,6.0312,-0.035,-0.057,0.008,64.0,65.0,67.0,11.9,1504.3,215.0,-1.6,0.3,2192.909,13.17,0.066,211.6
11,2022-05-23T02:30:00,2200.0,42.79,6.0312,-0.033,-0.058,0.003,62.0,67.0,67.0,11.9,1504.3,212.4,-1.0,0.6,2192.882,13.17,0.066,209.6
11,2022-05-23T03:00:00,2200.0,42.79,6.0312,-0.027,-0.056,0.009,62.0,68.0,68.0,11.8,1504.3,208.7,-1.4,0.4,2192.832,13.17,0.062,205.7
11,2022-05-23T03:30:00,2200.0,42.79,6.0312,-0.025,-0.056,-0.013,63.0,64.0,68.0,11.9,1504.3,212.1,-1.1,0.5,2192.917,13.17,0.061,204.1
11,2022-05-23T04:00:00,2200.0,42.79,6.0312,-0.029,-0.066,0.015,64.0,67.0,67.0,11.9,1504.3,215.7,-1.0,0.3,2192.86,13.17,0.072,203.7
11,2022-05-23T04:30:00,2200.0,42.79,6.0312,-0.02,-0.063,0.004,63.0,65.0,65.0,11.9,1504.3,214.7,-1.2,0.1,2192.846,13.17,0.066,197.6
11,2022-05-23T05:00:00,2200.0,42.79,6.0312,-0.027,-0.054,-0.003,63.0,65.0,66.0,11.9,1504.3,215.5,-1.4,0.2,2192.775,13.17,0.06,206.6
11,2022-05-23T05:30:00,2200.0,42.79,6.0312,-0.04,-0.064,0.016,63.0,64.0,67.0,11.8,1504.3,213.7,-1.0,0.3,2192.811,13.17,0.075,212.0
11,2022-05-23T06:00:00,2200.0,42.79,6.0312,-0.023,-0.07,-0.003,64.0,66.0,67.0,11.9,1504.3,214.5,-1.3,0.5,2192.776,13.17,0.073,198.2
11,2022-05-23T06:30:00,2200.0,42.79,6.0312,-0.027,-0.055,0.018,62.0,67.0,70.0,11.9,1504.3,207.8,-1.4,0.4,2192.755,13.17,0.061,206.1
11,2022-05-23T07:00:00,2200.0,42.79,6.0312,-0.025,-0.059,0.002,61.0,65.0,66.0,11.8,1504.3,209.6,-1.4,0.5,2192.78,13.17,0.064,203.0
11,2022-05-23T07:30:00,2200.0,42.79,6.0312,-0.033,-0.058,0.011,62.0,65.0,67.0,11.9,1504.3,213.5,-1.4,0.2,2192.707,13.17,0.066,209.6
11,2022-05-23T08:00:00,2200.0,42.79,6.0312,-0.006,-0.055,0.009,62.0,65.0,67.0,11.8,1504.3,212.6,-1.0,0.2,2192.749,13.17,0.055,186.2
11,2022-05-23T08:30:00,2200.0,42.79,6.0312,-0.02,-0.055,0.0,66.0,67.0,71.0,11.9,1504.3,210.6,-1.0,0.3,2192.723,13.17,0.058,200.0
11,2022-05-23T09:00:00,2200.0,42.79,6.0312,-0.013,-0.048,0.007,63.0,67.0,67.0,11.9,1504.3,208.5,-1.4,0.5,2192.67,13.17,0.049,195.2
11,2022-05-23T09:30:00,2200.0,42.79,6.0312,0.001,-0.044,-0.001,64.0,66.0,66.0,11.9,1504.3,209.0,-0.9,0.3,2192.715,13.17,0.044,178.7
11,2022-05-23T10:00:00,2200.0,42.79,6.0312,-0.013,-0.043,-0.008,62.0,65.0,66.0,11.8,1504.3,210.1,-1.2,0.0,2192.681,13.17,0.044,196.8
11,2022-05-23T10:30:00,2200.0,42.79,6.0312,0.007,-0.033,0.0,63.0,65.0,66.0,11.9,1504.3,211.0,-1.1,0.5,2192.686,13.17,0.033,168.0
11,2022-05-23T11:00:00,2200.0,42.79,6.0312,0.004,-0.041,0.001,63.0,70.0,68.0,11.9,1504.3,207.7,-1.2,0.5,2192.759,13.17,0.041,174.4
11,2022-05-23T11:30:00,2200.0,42.79,6.0312,0.013,-0.038,0.01,60.0,65.0,67.0,11.8,1504.3,210.4,-1.4,0.4,2192.691,13.17,0.04,161.1
11,2022-05-23T12:00:00,2200.0,42.79,6.0312,0.016,-0.038,0.011,63.0,67.0,68.0,11.8,1504.3,211.2,-1.1,0.1,2192.689,13.17,0.041,157.2
11,2022-05-23T12:30:00,2200.0,42.79,6.0312,0.007,-0.047,-0.005,63.0,65.0,65.0,11.9,1504.3,208.3,-0.9,0.4,2192.728,13.17,0.047,171.5
11,2022-05-23T13:00:00,2200.0,42.79,6.0312,0.019,-0.042,0.012,63.0,63.0,70.0,11.9,1504.3,211.1,-1.2,0.5,2192.734,13.17,0.046,155.7
11,2022-05-23T13:30:00,2200.0,42.79,6.0312,0.011,-0.037,0.01,61.0,66.0,68.0,11.9,1504.3,209.9,-1.2,0.2,2192.763,13.17,0.038,163.4
11,2022-05-23T14:00:00,2200.0,42.79,6.0312,0.03,-0.033,0.0,63.0,65.0,68.0,11.8,1504.3,210.5,-1.1,0.1,2192.72,13.17,0.044,137.7
11,2022-05-23T14:30:00,2200.0,42.79,6.0312,0.008,-0.043,0.005,62.0,63.0,66.0,11.9,1504.3,210.4,-1.0,0.4,2192.749,13.17,0.043,169.5
11,2022-05-23T15:00:00,2200.0,42.79,6.0312,0.019,-0.049,0.01,62.0,67.0,67.0,11.9,1504.3,213.4,-0.9,0.1,2192.741,13.17,0.052,158.8
11,2022-05-23T15:30:00,2200.0,42.79,6.0312,0.001,-0.052,0.009,60.0,66.0,67.0,11.8,1504.3,208.4,-1.2,0.4,2192.716,13.17,0.052,178.9
11,2022-05-23T16:00:00,2200.0,42.79,6.0312,0.013,-0.05,-0.004,60.0,65.0,67.0,11.9,1504.3,210.6,-1.1,0.3,2192.749,13.17,0.051,165.4
11,2022-05-23T16:30:00,2200.0,42.79,6.0312,0.015,-0.044,0.009,62.0,66.0,66.0,11.9,1504.3,207.4,-1.2,0.3,2192.687,13.17,0.046,161.2
11,2022-05-23T17:00:00,2200.0,42.79,6.0312,0.011,-0.055,0.006,65.0,63.0,67.0,11.8,1504.3,205.0,-1.0,0.0,2192.676,13.17,0.056,168.7
11,2022-05-23T17:30:00,2200.0,42.79,6.0312,0.01,-0.053,0.011,63.0,65.0,65.0,11.9,1504.3,199.6,-0.7,0.3,2192.696,13.17,0.053,169.3
11,2022-05-23T18:00:00,2200.0,42.79,6.0312,0.014,-0.044,0.008,63.0,65.0,67.0,11.8,1504.3,200.3,-0.6,0.2,2192.647,13.17,0.046,162.4
11,2022-05-23T18:30:00,2200.0,42.79,6.0312,0.003,-0.059,0.014,60.0,66.0,64.0,11.8,1504.3,200.6,-1.1,0.4,2192.716,13.17,0.059,177.1
11,2022-05-23T19:00:00,2200.0,42.79,6.0312,0.003,-0.044,0.012,62.0,64.0,64.0,11.9,1504.3,197.7,-0.7,0.2,2192.686,13.17,0.044,176.1
11,2022-05-23T19:30:00,2200.0,42.79,6.0312,0.002,-0.052,0.009,60.0,64.0,67.0,11.8,1504.3,201.0,-0.6,-0.1,2192.649,13.17,0.052,177.8
11,2022-05-23T20:00:00,2200.0,42.79,6.0312,0.004,-0.045,0.019,62.0,62.0,65.0,11.8,1504.3,195.6,-1.0,0.1,2192.707,13.17,0.045,174.9
11,2022-05-23T20:30:00,2200.0,42.79,6.0312,0.011,-0.057,0.013,60.0,63.0,64.0,11.9,1504.3,197.3,-0.8,0.1,2192.629,13.17,0.058,169.1
11,2022-05-23T21:00:00,2200.0,42.79,6.0312,0.015,-0.042,0.008,59.0,64.0,64.0,11.8,1504.3,198.5,-0.7,0.0,2192.668,13.17,0.044,160.4
